K9BM Weather Reports


Display with metric or nautical units.
time (UTC)temp
F
wind
direction
speed
MPH
gust
MPH
rain 1hr
in
rain 24hr
in
rain mn
in
humidity
%
barometer
mb
20260901092504 54 354 0.0 0.0 0.00 0.00 0.00 52 1008.1
20260901092004 55 353 0.0 0.0 0.00 0.00 0.00 53 1008.1
20260901091504 54 359 0.0 0.0 0.00 0.00 0.00 53 1008.1
20260901091005 54 359 0.0 0.0 0.00 0.00 0.00 55 1008.1
20260901090004 53 359 0.0 0.0 0.00 0.00 0.00 55 1008.1
20260901085505 54 359 0.0 0.0 0.00 0.00 0.00 55 1008.1
20260901085004 54 359 0.0 0.0 0.00 0.00 0.00 55 1008.2
20260901084005 55 359 0.0 0.0 0.00 0.00 0.00 54 1008.1
20260901083505 55 359 0.0 1.0 0.00 0.00 0.00 53 1008.1
20260901082504 55 359 1.0 3.0 0.00 0.00 0.00 53 1008.1
20260901082004 55 359 2.0 6.0 0.00 0.00 0.00 53 1008.1
20260901081504 55 6 3.0 7.0 0.00 0.00 0.00 53 1008.1
20260901081004 56 0 5.0 10.0 0.00 0.00 0.00 52 1008.1
20260901080004 56 347 5.0 8.0 0.00 0.00 0.00 51 1008.1
20260901075504 56 14 3.0 8.0 0.00 0.00 0.00 51 1008.1
20260901075004 56 15 4.0 8.0 0.00 0.00 0.00 50 1008.2
20260901074504 57 25 3.0 7.0 0.00 0.00 0.00 50 1008.1
20260901074004 57 13 2.0 5.0 0.00 0.00 0.00 49 1008.1
20260901073505 57 10 2.0 3.0 0.00 0.00 0.00 48 1008.3
20260901073005 57 343 0.0 3.0 0.00 0.00 0.00 48 1008.3
20260901072504 58 343 0.0 3.0 0.00 0.00 0.00 48 1008.4
20260901072005 58 343 3.0 6.0 0.00 0.00 0.00 47 1008.3
20260901071504 58 308 3.0 6.0 0.00 0.00 0.00 46 1008.3
20260901070005 57 198 0.0 0.0 0.00 0.00 0.00 44 1008.4
20260901065504 57 199 0.0 3.0 0.00 0.00 0.00 46 1008.4
20260901064004 57 199 2.0 3.0 0.00 0.00 0.00 45 1008.4
20260901063504 57 198 2.0 3.0 0.00 0.00 0.00 47 1008.4
20260901063004 58 198 2.0 3.0 0.00 0.00 0.00 47 1008.4
20260901062504 57 199 1.0 5.0 0.00 0.00 0.00 46 1008.4
20260901062004 58 198 3.0 5.0 0.00 0.00 0.00 47 1008.5
20260901061007 58 197 5.0 7.0 0.00 0.00 0.00 46 1008.5
20260901060004 58 174 4.0 6.0 0.00 0.00 0.00 46 1008.4
20260901055004 60 89 0.0 0.0 0.00 0.00 0.00 43 1008.3
20260901054505 61 84 0.0 0.0 0.00 0.00 0.00 39 1008.4
20260901053504 62 82 0.0 0.0 0.00 0.00 0.00 36 1008.4
20260901053004 62 82 0.0 0.0 0.00 0.00 0.00 36 1008.5
20260901052505 62 82 0.0 0.0 0.00 0.00 0.00 36 1008.5
20260901052004 63 82 0.0 0.0 0.00 0.00 0.00 35 1008.5
20260901051504 63 82 0.0 0.0 0.00 0.00 0.00 35 1008.6
20260901051004 64 83 0.0 0.0 0.00 0.00 0.00 33 1008.7
20260901050004 64 83 0.0 3.0 0.00 0.00 0.00 31 1008.8
20260901045005 64 83 1.0 5.0 0.00 0.00 0.00 32 1008.9
20260901044506 64 84 0.0 7.0 0.00 0.00 0.00 32 1008.9
20260901044004 64 83 3.0 7.0 0.00 0.00 0.00 32 1008.9
20260901043504 65 54 3.0 5.0 0.00 0.00 0.00 32 1008.9
20260901043004 65 145 2.0 8.0 0.00 0.00 0.00 31 1008.9
20260901042004 66 151 6.0 12.0 0.00 0.00 0.00 30 1008.8
20260901041504 66 157 8.0 12.0 0.00 0.00 0.00 30 1008.7
20260901041004 66 155 8.0 12.0 0.00 0.00 0.00 30 1008.7
20260901035004 66 155 9.0 12.0 0.00 0.00 0.00 30 1008.8
20260901034504 66 156 9.0 12.0 0.00 0.00 0.00 30 1008.8
20260901034004 66 154 9.0 12.0 0.00 0.00 0.00 30 1008.8
20260901033504 67 153 10.0 13.0 0.00 0.00 0.00 30 1008.8
20260901033004 67 153 8.0 13.0 0.00 0.00 0.00 30 1008.8
20260901032504 67 149 9.0 12.0 0.00 0.00 0.00 30 1008.9
20260901032004 67 149 7.0 12.0 0.00 0.00 0.00 30 1008.8
20260901031504 67 151 9.0 12.0 0.00 0.00 0.00 30 1008.8
20260901031004 67 151 7.0 12.0 0.00 0.00 0.00 30 1008.7
20260901030004 67 147 7.0 10.0 0.00 0.00 0.00 30 1008.6
20260901025504 67 148 7.0 10.0 0.00 0.00 0.00 30 1008.7
20260901025005 67 146 7.0 10.0 0.00 0.00 0.00 30 1008.6
20260901024005 67 144 7.0 10.0 0.00 0.00 0.00 31 1008.5
20260901023504 68 140 8.0 12.0 0.00 0.00 0.00 29 1008.3
20260901023005 68 136 8.0 12.0 0.00 0.00 0.00 28 1008.3
20260901022504 69 135 9.0 12.0 0.00 0.00 0.00 28 1008.4
20260901022004 69 135 10.0 12.0 0.00 0.00 0.00 27 1008.4
20260901021504 69 139 9.0 12.0 0.00 0.00 0.00 28 1008.4
20260901021004 69 136 9.0 10.0 0.00 0.00 0.00 28 1008.3
20260901020004 71 130 8.0 10.0 0.00 0.00 0.00 27 1008.2
20260901015504 72 127 8.0 12.0 0.00 0.00 0.00 25 1008.3
20260901015005 73 125 8.0 13.0 0.00 0.00 0.00 25 1008.2
20260901014504 73 123 10.0 13.0 0.00 0.00 0.00 25 1008.4
20260901014004 73 121 9.0 13.0 0.00 0.00 0.00 25 1008.5
20260901013504 74 116 10.0 13.0 0.00 0.00 0.00 25 1008.4
20260901013004 74 112 11.0 13.0 0.00 0.00 0.00 25 1008.3
20260901012504 75 111 10.0 13.0 0.00 0.00 0.00 25 1008.3
20260901012004 75 114 8.0 12.0 0.00 0.00 0.00 25 1008.3
20260901011504 76 114 9.0 13.0 0.00 0.00 0.00 24 1008.3
20260901011004 76 105 9.0 13.0 0.00 0.00 0.00 23 1008.2
20260901010004 77 97 9.0 14.0 0.00 0.00 0.00 22 1008.2
20260901005504 77 96 9.0 14.0 0.00 0.00 0.00 22 1008.2
20260901004504 78 97 9.0 13.0 0.00 0.00 0.00 21 1008.2
20260901003503 79 97 9.0 13.0 0.00 0.00 0.00 20 1008.2
20260901003004 79 96 8.0 12.0 0.00 0.00 0.00 19 1008.2
20260901002503 79 98 7.0 10.0 0.00 0.00 0.00 18 1008.3
20260901001504 79 105 9.0 16.0 0.00 0.00 0.00 18 1008.4
20260901001004 79 76 8.0 12.0 0.00 0.00 0.00 18 1008.4
20260901000004 79 63 4.0 12.0 0.00 0.00 0.00 18 1008.4
20260831235504 79 57 6.0 12.0 0.00 0.00 0.00 18 1008.5
20260831234504 79 69 7.0 13.0 0.00 0.00 0.00 18 1008.6
20260831234004 79 80 5.0 13.0 0.00 0.00 0.00 17 1008.6
20260831233004 80 71 4.0 12.0 0.00 0.00 0.00 17 1008.6
20260831232004 80 60 1.0 3.0 0.00 0.00 0.00 17 1008.7
20260831231004 80 62 3.0 8.0 0.00 0.00 0.00 16 1008.8
20260831230004 81 108 3.0 9.0 0.00 0.00 0.00 16 1008.9
20260831225004 82 136 4.0 9.0 0.00 0.00 0.00 16 1009.0
20260831224504 82 140 5.0 9.0 0.00 0.00 0.00 16 1009.1
20260831223503 81 116 3.0 12.0 0.00 0.00 0.00 16 1009.1
20260831222506 80 166 9.0 14.0 0.00 0.00 0.00 17 1009.1
20260831222006 80 148 7.0 12.0 0.00 0.00 0.00 17 1009.1
20260831221506 79 27 5.0 9.0 0.00 0.00 0.00 18 1009.2
20260831221007 79 12 2.0 8.0 0.00 0.00 0.00 17 1009.3
20260831220006 79 48 2.0 7.0 0.00 0.00 0.00 17 1009.4
20260831215506 79 310 1.0 9.0 0.00 0.00 0.00 16 1009.4
20260831215006 79 285 5.0 9.0 0.00 0.00 0.00 18 1009.6
20260831214506 80 44 4.0 7.0 0.00 0.00 0.00 16 1009.6
20260831214006 79 136 1.0 12.0 0.00 0.00 0.00 17 1009.7
20260831213505 78 136 2.0 13.0 0.00 0.00 0.00 16 1009.8
20260831213006 77 167 7.0 13.0 0.00 0.00 0.00 17 1009.9
20260831212506 77 320 4.0 14.0 0.00 0.00 0.00 18 1010.0
20260831212006 76 233 7.0 14.0 0.00 0.00 0.00 18 1010.1
20260831211506 76 339 9.0 14.0 0.00 0.00 0.00 18 1010.2
20260831211006 76 317 8.0 13.0 0.00 0.00 0.00 18 1010.2
20260831210006 76 347 4.0 14.0 0.00 0.00 0.00 17 1010.4
20260831205506 76 293 9.0 14.0 0.00 0.00 0.00 18 1010.4
20260831205005 76 288 6.0 13.0 0.00 0.00 0.00 18 1010.4
20260831204506 76 246 1.0 12.0 0.00 0.00 0.00 18 1010.5
20260831204006 75 284 3.0 12.0 0.00 0.00 0.00 18 1010.7
20260831203506 76 274 8.0 14.0 0.00 0.00 0.00 18 1010.8
20260831203006 76 285 8.0 15.0 0.00 0.00 0.00 19 1010.8
20260831202506 76 281 9.0 15.0 0.00 0.00 0.00 18 1010.8
20260831202006 76 286 10.0 15.0 0.00 0.00 0.00 18 1010.8
20260831195506 75 271 12.0 17.0 0.00 0.00 0.00 17 1011.1
20260831194505 75 271 8.0 13.0 0.00 0.00 0.00 19 1011.2
20260831193506 74 270 4.0 20.0 0.00 0.00 0.00 18 1011.3
20260831192006 73 279 9.0 16.0 0.00 0.00 0.00 19 1011.6
20260831191506 73 260 13.0 16.0 0.00 0.00 0.00 18 1011.6
20260831191006 72 241 7.0 16.0 0.00 0.00 0.00 20 1011.6
20260831190006 72 263 10.0 15.0 0.00 0.00 0.00 20 1011.7
20260831185506 72 264 10.0 20.0 0.00 0.00 0.00 21 1011.7
20260831185006 71 254 10.0 20.0 0.00 0.00 0.00 21 1011.8
20260831184006 71 245 10.0 17.0 0.00 0.00 0.00 21 1011.8
20260831183006 70 251 10.0 20.0 0.00 0.00 0.00 22 1012.0
20260831182505 70 245 13.0 20.0 0.00 0.00 0.00 22 1012.1
20260831181506 70 245 10.0 18.0 0.00 0.00 0.00 23 1012.1
20260831181006 70 266 12.0 18.0 0.00 0.00 0.00 23 1012.2
20260831180006 69 258 9.0 16.0 0.00 0.00 0.00 24 1012.2
20260831175506 69 248 9.0 16.0 0.00 0.00 0.00 24 1012.4
20260831175006 69 249 9.0 16.0 0.00 0.00 0.00 23 1012.4
20260831174506 69 266 11.0 16.0 0.00 0.00 0.00 25 1012.5
20260831174006 69 255 12.0 15.0 0.00 0.00 0.00 23 1012.6
20260831173505 69 254 7.0 14.0 0.00 0.00 0.00 24 1012.6
20260831173006 68 266 7.0 15.0 0.00 0.00 0.00 25 1012.6
20260831172506 68 241 8.0 15.0 0.00 0.00 0.00 25 1012.7
20260831172006 67 261 8.0 14.0 0.00 0.00 0.00 26 1012.7
20260831170005 66 248 9.0 17.0 0.00 0.00 0.00 27 1012.8
20260831165505 65 239 9.0 18.0 0.00 0.00 0.00 27 1012.8
20260831165006 65 255 13.0 18.0 0.00 0.00 0.00 26 1012.8
20260831164506 65 270 10.0 16.0 0.00 0.00 0.00 27 1012.8
20260831164005 65 255 13.0 16.0 0.00 0.00 0.00 27 1012.8
20260831163006 64 274 10.0 17.0 0.00 0.00 0.00 28 1012.7
20260831162006 64 265 10.0 18.0 0.00 0.00 0.00 29 1012.8
20260831161506 64 273 13.0 18.0 0.00 0.00 0.00 28 1012.8
20260831161005 63 270 9.0 14.0 0.00 0.00 0.00 30 1012.8
20260831160006 63 251 10.0 17.0 0.00 0.00 0.00 31 1012.8
20260831155506 62 271 10.0 17.0 0.00 0.00 0.00 32 1012.7
20260831155006 62 253 11.0 17.0 0.00 0.00 0.00 32 1012.7
20260831154505 62 256 10.0 15.0 0.00 0.00 0.00 32 1012.8
20260831154006 62 272 10.0 15.0 0.00 0.00 0.00 32 1012.7
20260831153506 61 264 9.0 18.0 0.00 0.00 0.00 32 1012.6
20260831153006 61 264 11.0 18.0 0.00 0.00 0.00 33 1012.7
20260831152505 61 265 12.0 16.0 0.00 0.00 0.00 32 1012.8
20260831152005 60 269 12.0 18.0 0.00 0.00 0.00 33 1012.7
20260831151005 60 276 13.0 17.0 0.00 0.00 0.00 33 1012.6
20260831150006 60 261 13.0 18.0 0.00 0.00 0.00 34 1012.6
20260831145006 59 264 12.0 18.0 0.00 0.00 0.00 35 1012.5
20260831144505 59 263 13.0 18.0 0.00 0.00 0.00 35 1012.4
20260831144006 59 243 11.0 20.0 0.00 0.00 0.00 35 1012.4
20260831143006 58 264 13.0 20.0 0.00 0.03 0.00 36 1012.1
20260831142505 58 253 14.0 21.0 0.00 0.05 0.00 37 1012.0
20260831142006 58 244 12.0 21.0 0.00 0.07 0.00 37 1011.9
20260831141505 58 240 13.0 20.0 0.00 0.08 0.00 37 1011.8
20260831141006 57 244 12.0 20.0 0.00 0.09 0.00 37 1011.9
20260831140005 57 246 11.0 20.0 0.00 0.11 0.00 37 1011.8
20260831135006 57 245 14.0 23.0 0.00 0.11 0.00 36 1011.6
20260831132006 57 254 18.0 23.0 0.00 0.11 0.00 36 1011.4
20260831131506 56 249 17.0 24.0 0.00 0.11 0.00 36 1011.4
20260831131006 56 251 18.0 24.0 0.00 0.11 0.00 38 1011.3
20260831130005 55 243 15.0 22.0 0.00 0.11 0.00 39 1011.1
20260831125006 55 246 17.0 25.0 0.00 0.11 0.00 39 1011.0
20260831124506 55 245 16.0 25.0 0.00 0.11 0.00 40 1010.9
20260831124005 55 243 16.0 24.0 0.00 0.11 0.00 40 1010.9
20260831122505 54 244 16.0 23.0 0.00 0.11 0.00 41 1010.7
20260831122006 53 242 14.0 20.0 0.00 0.11 0.00 43 1010.7
20260831121506 53 236 10.0 16.0 0.00 0.11 0.00 44 1010.7
20260831121005 53 234 11.0 20.0 0.00 0.11 0.00 44 1010.7
20260831120005 53 234 12.0 17.0 0.00 0.11 0.00 45 1010.7
20260831115506 53 231 10.0 17.0 0.00 0.11 0.00 45 1010.7
20260831115006 53 235 10.0 14.0 0.00 0.12 0.00 45 1010.7
20260831114506 53 236 10.0 14.0 0.00 0.12 0.00 46 1010.8
20260831114006 53 234 10.0 14.0 0.00 0.12 0.00 46 1010.8
20260831113506 53 231 10.0 13.0 0.00 0.12 0.00 47 1010.8
20260831113005 53 233 10.0 14.0 0.00 0.12 0.00 47 1010.8
20260831112506 53 229 10.0 14.0 0.00 0.12 0.00 47 1010.8
20260831112005 53 229 9.0 13.0 0.00 0.12 0.00 47 1010.7
20260831111505 53 226 9.0 13.0 0.00 0.12 0.00 47 1010.8
20260831111005 53 227 8.0 13.0 0.00 0.12 0.00 47 1010.8
20260831110005 53 232 9.0 12.0 0.00 0.12 0.00 47 1010.9
20260831105506 53 232 9.0 12.0 0.00 0.12 0.00 46 1010.9
20260831105006 53 228 8.0 13.0 0.00 0.12 0.00 46 1010.8
20260831104505 53 228 9.0 14.0 0.00 0.12 0.00 46 1010.8
20260831104005 53 230 10.0 16.0 0.00 0.12 0.00 46 1010.8
20260831103005 53 232 10.0 16.0 0.00 0.12 0.00 46 1010.7
20260831102505 53 231 9.0 14.0 0.00 0.12 0.00 46 1010.7
20260831101505 53 231 9.0 13.0 0.00 0.12 0.00 48 1010.8
20260831101006 53 225 8.0 13.0 0.00 0.12 0.00 48 1010.7
20260831100005 53 231 7.0 12.0 0.00 0.12 0.00 48 1010.7
20260831095506 53 212 7.0 12.0 0.00 0.12 0.00 48 1010.7
20260831095006 53 229 7.0 12.0 0.00 0.12 0.00 48 1010.7
20260831094506 53 231 7.0 12.0 0.00 0.12 0.00 48 1010.7
20260831094005 53 231 7.0 12.0 0.00 0.12 0.00 48 1010.7
20260831093505 53 231 7.0 12.0 0.00 0.12 0.00 48 1010.7
20260831093005 53 233 7.0 12.0 0.00 0.12 0.00 48 1010.7